K5AGY Weather Reports


Display with metric or nautical units.
time (UTC)temp
F
wind
direction
speed
MPH
gust
MPH
rain 1hr
in
rain 24hr
in
rain mn
in
humidity
%
barometer
mb
20260510083020 70 141 0.0 3.0 0.00 0.02 0.00 80 1010.8
20260510081620 70 149 1.0 3.0 0.00 0.02 0.00 80 1010.7
20260510080027 70 134 1.0 5.0 0.00 0.02 0.00 79 1010.7
20260510074557 70 116 1.0 3.0 0.00 0.02 0.00 78 1010.6
20260510073029 71 112 0.0 1.0 0.00 0.02 0.00 77 1010.6
20260510071602 71 110 0.0 4.0 0.00 0.02 0.00 76 1010.6
20260510070134 71 165 0.0 2.0 0.00 0.02 0.00 76 1010.6
20260510064503 72 86 2.0 4.0 0.00 0.02 0.00 75 1011.0
20260510063041 72 123 0.0 3.0 0.00 0.02 0.00 75 1010.9
20260510061509 73 99 1.0 3.0 0.00 0.02 0.00 75 1011.0
20260510060043 73 110 1.0 5.0 0.00 0.02 0.00 75 1010.8
20260510054504 74 152 0.0 4.0 0.00 0.02 0.00 74 1010.6
20260510053041 74 134 1.0 5.0 0.00 0.02 0.00 74 1010.5
20260510051504 75 136 0.0 3.0 0.00 0.02 0.00 73 1010.4
20260510050033 75 121 2.0 5.0 0.00 0.02 0.00 73 1010.3
20260510044617 75 139 2.0 4.0 0.00 0.02 0.02 74 1010.2
20260510043050 75 113 1.0 4.0 0.00 0.02 0.02 73 1010.2
20260510041513 75 103 1.0 3.0 0.00 0.02 0.02 73 1010.1
20260510040053 76 96 0.0 2.0 0.00 0.02 0.02 72 1009.9
20260510034528 76 96 0.0 2.0 0.00 0.02 0.02 71 1009.8
20260510033004 77 99 0.0 2.0 0.00 0.02 0.02 70 1009.8
20260510031540 77 118 1.0 4.0 0.00 0.02 0.02 69 1009.6
20260510030014 77 116 3.0 8.0 0.00 0.02 0.02 69 1009.4
20260510024545 77 92 2.0 4.0 0.00 0.02 0.02 67 1009.1
20260510023020 77 72 1.0 2.0 0.00 0.02 0.02 67 1008.8
20260510021559 77 83 1.0 2.0 0.00 0.02 0.02 68 1008.7
20260510020033 76 74 0.0 1.0 0.00 0.02 0.02 69 1008.4
20260510014508 78 74 0.0 1.0 0.00 0.02 0.02 69 1008.1
20260510013047 79 75 0.0 1.0 0.00 0.02 0.02 64 1007.9
20260510011523 80 75 0.0 1.0 0.00 0.02 0.02 61 1007.7
20260510010059 81 75 0.0 6.0 0.00 0.02 0.02 59 1007.9
20260510004538 83 56 2.0 6.0 0.00 0.02 0.02 56 1008.0
20260510003011 87 78 1.0 3.0 0.00 0.02 0.02 56 1008.0
20260510001548 89 113 0.0 4.0 0.00 0.02 0.02 54 1007.8
20260510000026 90 111 2.0 8.0 0.00 0.02 0.02 51 1007.7
20260509234602 93 124 0.0 2.0 0.00 0.02 0.02 47 1007.5
20260509233032 92 207 1.0 4.0 0.00 0.02 0.02 46 1007.2
20260509231508 92 228 1.0 4.0 0.00 0.02 0.02 43 1007.3
20260509230042 93 136 0.0 2.0 0.00 0.02 0.02 42 1007.3
20260509224511 92 195 1.0 4.0 0.00 0.02 0.02 44 1007.1
20260509223052 92 219 2.0 4.0 0.00 0.02 0.02 45 1007.3
20260509221521 91 118 0.0 3.0 0.00 0.02 0.02 51 1007.0
20260509220059 92 111 1.0 3.0 0.00 0.02 0.02 50 1006.9
20260509214531 92 98 0.0 4.0 0.00 0.02 0.02 50 1006.9
20260509213103 91 272 0.0 3.0 0.00 0.02 0.02 52 1007.3
20260509211536 90 85 1.0 7.0 0.00 0.02 0.02 52 1007.7
20260509210016 89 314 2.0 6.0 0.00 0.02 0.02 55 1008.0
20260509204542 89 264 0.0 5.0 0.00 0.02 0.02 54 1008.1
20260509203018 89 185 0.0 5.0 0.00 0.02 0.02 53 1008.3
20260509201600 89 283 2.0 6.0 0.00 0.02 0.02 53 1008.3
20260509200022 88 283 4.0 8.0 0.00 0.02 0.02 55 1008.4
20260509194557 88 286 2.0 7.0 0.00 0.02 0.02 54 1008.6
20260509193037 87 278 3.0 8.0 0.00 0.02 0.02 58 1008.8
20260509191508 87 278 3.0 6.0 0.00 0.02 0.02 61 1009.0
20260509190040 87 288 2.0 7.0 0.00 0.02 0.02 61 1009.3
20260509184508 85 315 3.0 6.0 0.00 0.02 0.02 65 1009.3
20260509183043 85 287 4.0 7.0 0.00 0.02 0.02 62 1009.6
20260509181514 84 231 2.0 5.0 0.00 0.02 0.02 64 1009.9
20260509180051 84 212 2.0 5.0 0.00 0.02 0.02 65 1010.1
20260509174529 84 222 2.0 5.0 0.00 0.02 0.02 64 1010.4
20260509173109 83 297 0.0 6.0 0.00 0.02 0.02 67 1010.5
20260509171541 83 244 0.0 4.0 0.00 0.02 0.02 68 1010.7
20260509170002 82 266 2.0 5.0 0.00 0.02 0.02 67 1010.7
20260509164535 81 122 0.0 4.0 0.00 0.02 0.02 71 1010.6
20260509163124 80 214 1.0 3.0 0.00 0.02 0.02 73 1010.6
20260509161529 79 285 1.0 5.0 0.00 0.02 0.02 78 1010.5
20260509160053 77 293 2.0 6.0 0.00 0.02 0.02 82 1010.5
20260509154520 76 316 1.0 2.0 0.00 0.02 0.02 83 1010.7
20260509153057 76 75 1.0 4.0 0.00 0.02 0.02 83 1010.2
20260509151528 76 72 1.0 4.0 0.00 0.02 0.02 84 1009.8
20260509150001 75 283 0.0 2.0 0.00 0.02 0.02 85 1010.6
20260509144610 75 249 0.0 2.0 0.00 0.02 0.02 86 1010.7
20260509143008 74 227 1.0 5.0 0.00 0.02 0.02 86 1010.4
20260509141544 74 228 3.0 6.0 0.00 0.02 0.02 86 1010.1
20260509140009 74 233 1.0 2.0 0.00 0.02 0.02 86 1010.0
20260509134548 74 28 1.0 2.0 0.00 0.02 0.02 86 1009.5
20260509133022 74 51 1.0 4.0 0.00 0.02 0.02 86 1009.4
20260509131559 74 100 1.0 3.0 0.02 0.02 0.02 86 1010.0
20260509130036 74 346 0.0 1.0 0.02 0.02 0.02 86 1011.0
20260509124511 73 316 1.0 2.0 0.02 0.02 0.02 86 1011.0
20260509123046 73 110 0.0 2.0 0.02 0.02 0.02 86 1010.6
20260509121527 73 32 0.0 2.0 0.00 0.00 0.00 86 1010.7
20260509120107 73 89 0.0 3.0 0.00 0.00 0.00 86 1010.7
20260509114533 73 44 1.0 3.0 0.00 0.00 0.00 86 1010.4
20260509113011 73 31 0.0 2.0 0.00 0.00 0.00 86 1009.9
20260509111548 73 35 0.0 1.0 0.00 0.00 0.00 86 1009.4
20260509110025 73 66 0.0 4.0 0.00 0.00 0.00 86 1009.4
20260509104602 73 359 0.0 1.0 0.00 0.00 0.00 86 1009.9
20260509103044 73 58 0.0 3.0 0.00 0.00 0.00 86 1010.0
20260509101517 73 27 1.0 4.0 0.00 0.00 0.00 86 1010.1
20260509100057 73 304 1.0 4.0 0.00 0.00 0.00 86 1010.0
20260509094534 73 70 0.0 2.0 0.00 0.00 0.00 86 1009.2
20260509093006 73 70 1.0 4.0 0.00 0.00 0.00 86 1008.6
20260509091536 73 149 0.0 1.0 0.00 0.00 0.00 86 1009.2
20260509090011 73 151 0.0 1.0 0.00 0.00 0.00 85 1009.4
20260509084552 73 137 0.0 3.0 0.00 0.00 0.00 85 1008.9